Regional Weather Roundup
Issued by NWS

Home | Current Version | Previous Version | Text Only | Print | Product List | Glossary On
Versions: 1 2 3 4 5 6 7 8 9 10 11 12 13 14 15 16 17 18 19 20 21 22 23 24 25 26 27 28 29 30 31 32 33 34 35 36 37 38 39 40 41 42 43 44 45 46 47 48 49 50
000
ASUS43 KTOP 290308
RWRKS

WEATHER ROUNDUP FOR KANSAS
NATIONAL WEATHER SERVICE GOODLAND KS
1000 PM CDT WED SEP 28 2016

NOTE:  "FAIR" INDICATES FEW OR NO CLOUDS BELOW 12,000 FEET WITH NO
SIGNIFICANT WEATHER AND/OR OBSTRUCTIONS TO VISIBILITY.

KSZ001>006-013>018-027>032-041>047-290400-
NORTHWEST KANSAS

CITY           SKY/WX    TMP DP  RH WIND       PRES   REMARKS
GOODLAND       CLEAR     58  43  57 E8        30.32R
HAYS           CLEAR     55  39  54 NE9       30.30R
HILL CITY      CLEAR     51  44  77 NE6       30.31R
RUSSELL        CLEAR     54  47  77 E7        30.28R
$$

KSZ061>065-074>080-084>089-290400-
SOUTHWEST KANSAS

CITY           SKY/WX    TMP DP  RH WIND       PRES   REMARKS
DODGE CITY     CLEAR     60  38  43 E10       30.28R
ELKHART          N/A     66  41  40 E10         N/A
GARDEN CITY    CLEAR     59  42  53 E7        30.28R
GREAT BEND     CLEAR     59  43  55 E6        30.29R
LIBERAL        CLEAR     66  43  42 E14       30.29R
PRATT          CLEAR     57  40  52 NE6       30.28R
$$

KSZ066>073-081>083-090>101-290400-
SOUTHEAST KANSAS

CITY           SKY/WX    TMP DP  RH WIND       PRES   REMARKS
CHANUTE        CLEAR     57  49  74 N6        30.23R
COFFEYVILLE    CLEAR     58  49  72 N8        30.22R
HUTCHINSON     CLEAR     59  47  64 NE7       30.27R
MEDICINE LODGE   N/A     60  47  61 NE10      30.26R
NEWTON         CLEAR     56  47  71 NE7       30.27R
PARSONS        CLEAR     58  49  72 N7        30.23R
WICHITA INTL   CLEAR     60  48  64 NE12      30.25R
WICHITA JABRA  CLEAR     54  49  83 N6        30.26R
WICHITA MCCONL CLEAR     57  48  72 NE9       30.26R HAZE
WINFIELD       CLEAR     60  48  64 NE12      30.24R
$$

KSZ007>012-019>026-033>040-048>060-102>105-290400-
NORTHEAST KANSAS

CITY           SKY/WX    TMP DP  RH WIND       PRES   REMARKS
CONCORDIA      CLEAR     55  46  71 CALM      30.30R
EMPORIA        CLEAR     55  48  77 N7        30.27R
LAWRENCE       PTCLDY    53  50  89 N6        30.27R
MANHATTAN      CLEAR     55  47  74 NE7       30.28R
MARYSVILLE     CLEAR     50  45  81 N3        30.30R
OLATHE IND     PTCLDY    53  48  83 N8        30.27R
OLATHE EXE     PTCLDY    57  45  64 N8        30.26R
SALINA         CLEAR     60  46  59 NE6       30.29R
TOPEKA BILLARD PTCLDY    54  48  80 NW3       30.27R
TOPEKA FORBES  CLEAR     57  49  74 N5        30.27R
$$




USA.gov is the U.S. government's official web portal to all federal, state and local government web resources and services.